Time,TemperatureF,DewpointF,PressureIn,WindDirection,WindDirectionDegrees,WindSpeedMPH,WindSpeedGustMPH,Humidity,HourlyPrecipIn,Conditions,Clouds,dailyrainin,SoftwareType,DateUTC
2013-05-18 09:32:00,52.0,49.0,25.93,South,169,4.0,10.0,89,0.00,,,0.00,,2013-05-18 16:32:00,
2013-05-18 09:41:00,52.0,49.0,25.93,South,169,4.0,10.0,89,0.00,,,0.00,,2013-05-18 16:41:00,
2013-05-18 09:52:00,52.0,49.0,25.89,SE,145,3.0,12.0,89,0.00,,,0.00,,2013-05-18 16:52:00,
2013-05-18 10:02:00,53.0,50.0,25.92,South,178,2.0,11.0,89,0.00,,,0.00,,2013-05-18 17:02:00,
2013-05-18 10:12:00,53.0,50.0,25.92,South,178,2.0,11.0,89,0.00,,,0.00,,2013-05-18 17:12:00,
2013-05-18 10:22:00,53.0,50.0,25.90,SE,130,2.0,12.0,88,0.00,,,0.00,,2013-05-18 17:22:00,
2013-05-18 10:32:00,53.0,50.0,25.92,SE,140,5.0,12.0,88,0.00,,,0.00,,2013-05-18 17:32:00,
2013-05-18 10:42:00,53.0,50.0,25.92,SE,140,5.0,12.0,88,0.00,,,0.00,,2013-05-18 17:42:00,
2013-05-18 10:51:00,54.0,50.0,25.88,SSE,154,2.0,12.0,87,0.00,,,0.00,,2013-05-18 17:51:00,
2013-05-18 11:01:00,54.0,50.0,25.88,SSE,154,2.0,12.0,87,0.00,,,0.00,,2013-05-18 18:01:00,
2013-05-18 11:12:00,54.0,50.0,25.88,SSE,154,2.0,12.0,87,0.00,,,0.00,,2013-05-18 18:12:00,
2013-05-18 11:21:00,54.0,50.0,25.88,SSE,154,2.0,12.0,87,0.00,,,0.00,,2013-05-18 18:21:00,
2013-05-18 11:52:00,53.0,49.0,25.88,SSE,155,4.0,14.0,86,0.00,,,0.00,,2013-05-18 18:52:00,
2013-05-18 12:02:00,53.0,49.0,25.90,SE,132,5.0,15.0,86,0.00,,,0.00,,2013-05-18 19:02:00,
2013-05-18 12:11:00,53.0,49.0,25.90,SE,132,5.0,15.0,86,0.00,,,0.00,,2013-05-18 19:11:00,
2013-05-18 12:21:00,53.0,49.0,25.90,SE,132,5.0,15.0,86,0.00,,,0.00,,2013-05-18 19:21:00,
2013-05-18 12:31:00,54.0,50.0,25.90,South,175,7.0,17.0,85,0.00,,,0.00,,2013-05-18 19:31:00,
2013-05-18 12:42:00,54.0,50.0,25.90,South,175,7.0,17.0,85,0.00,,,0.00,,2013-05-18 19:42:00,
2013-05-18 12:52:00,54.0,49.0,25.90,SSE,162,8.0,18.0,84,0.00,,,0.00,,2013-05-18 19:52:00,
2013-05-18 13:01:00,54.0,50.0,25.88,SSW,206,4.0,16.0,86,0.00,,,0.00,,2013-05-18 20:01:00,
2013-05-18 13:11:00,54.0,50.0,25.88,SSW,206,4.0,16.0,86,0.00,,,0.00,,2013-05-18 20:11:00,
2013-05-18 13:21:00,55.0,51.0,25.92,South,183,4.0,14.0,85,0.00,,,0.00,,2013-05-18 20:21:00,
2013-05-18 13:32:00,55.0,51.0,25.86,SSE,159,9.0,21.0,85,0.00,,,0.00,,2013-05-18 20:32:00,
2013-05-18 13:42:00,55.0,51.0,25.86,SSE,159,9.0,21.0,85,0.00,,,0.00,,2013-05-18 20:42:00,
2013-05-18 13:52:00,55.0,51.0,25.86,SSE,159,9.0,21.0,85,0.00,,,0.00,,2013-05-18 20:52:00,
2013-05-18 14:01:00,55.0,50.0,25.86,SSE,164,5.0,16.0,84,0.00,,,0.00,,2013-05-18 21:01:00,
2013-05-18 14:11:00,55.0,50.0,25.86,SSE,164,5.0,16.0,84,0.00,,,0.00,,2013-05-18 21:11:00,
2013-05-18 14:21:00,55.0,50.0,25.86,SSE,164,5.0,16.0,84,0.00,,,0.00,,2013-05-18 21:21:00,
2013-05-18 14:32:00,55.0,51.0,25.87,SSE,164,6.0,13.0,85,0.00,,,0.00,,2013-05-18 21:32:00,
2013-05-18 14:43:00,55.0,51.0,25.87,SSE,164,6.0,13.0,85,0.00,,,0.00,,2013-05-18 21:43:00,
2013-05-18 14:53:00,54.0,50.0,25.85,SSW,195,5.0,19.0,87,0.00,,,0.00,,2013-05-18 21:53:00,
2013-05-18 15:03:00,53.0,50.0,25.86,SSE,165,3.0,16.0,91,0.00,,,0.00,,2013-05-18 22:03:00,
2013-05-18 15:12:00,53.0,50.0,25.86,SSE,165,3.0,16.0,91,0.00,,,0.00,,2013-05-18 22:12:00,
2013-05-18 15:23:00,53.0,50.0,25.86,SSE,165,3.0,16.0,91,0.00,,,0.00,,2013-05-18 22:23:00,
2013-05-18 15:32:00,53.0,50.0,25.86,SSE,165,3.0,16.0,91,0.00,,,0.00,,2013-05-18 22:32:00,
2013-05-18 15:42:00,53.0,50.0,25.86,SSE,165,3.0,16.0,91,0.00,,,0.00,,2013-05-18 22:42:00,
2013-05-18 16:32:00,52.0,51.0,25.85,South,177,3.0,12.0,95,0.01,,,0.01,,2013-05-18 23:32:00,
2013-05-18 16:42:00,52.0,51.0,25.85,South,177,3.0,12.0,95,0.01,,,0.01,,2013-05-18 23:42:00,
2013-05-18 16:53:00,52.0,51.0,25.85,South,177,3.0,12.0,95,0.01,,,0.01,,2013-05-18 23:53:00,
2013-05-18 17:01:00,52.0,51.0,25.86,SSE,157,4.0,13.0,97,0.00,,,0.01,,2013-05-19 00:01:00,
2013-05-18 17:11:00,52.0,51.0,25.86,SSE,157,4.0,13.0,97,0.00,,,0.01,,2013-05-19 00:11:00,
2013-05-18 17:21:00,52.0,51.0,25.86,SSE,157,4.0,13.0,97,0.00,,,0.01,,2013-05-19 00:21:00,
2013-05-18 17:31:00,52.0,51.0,25.87,WSW,258,2.0,9.0,97,0.00,,,0.01,,2013-05-19 00:31:00,
2013-05-18 17:41:00,52.0,51.0,25.87,WSW,258,2.0,9.0,97,0.00,,,0.01,,2013-05-19 00:41:00,
2013-05-18 17:52:00,52.0,51.0,25.82,SW,233,2.0,8.0,97,0.00,,,0.01,,2013-05-19 00:52:00,
2013-05-18 18:01:00,52.0,51.0,25.87,SSW,212,4.0,7.0,97,0.00,,,0.01,,2013-05-19 01:01:00,
2013-05-18 18:11:00,52.0,51.0,25.87,SSW,212,4.0,7.0,97,0.00,,,0.01,,2013-05-19 01:11:00,
2013-05-18 18:21:00,52.0,51.0,25.88,SW,226,4.0,7.0,97,0.01,,,0.02,,2013-05-19 01:21:00,
2013-05-18 18:32:00,53.0,52.0,25.87,West,276,2.0,6.0,97,0.01,,,0.02,,2013-05-19 01:32:00,
2013-05-18 18:41:00,53.0,52.0,25.87,West,276,2.0,6.0,97,0.01,,,0.02,,2013-05-19 01:41:00,
2013-05-18 18:52:00,53.0,52.0,25.84,WSW,256,3.0,6.0,97,0.01,,,0.02,,2013-05-19 01:52:00,
2013-05-18 19:01:00,52.0,51.0,25.80,West,264,1.0,6.0,96,0.01,,,0.02,,2013-05-19 02:01:00,
2013-05-18 19:11:00,52.0,51.0,25.80,West,264,1.0,6.0,96,0.01,,,0.02,,2013-05-19 02:11:00,
2013-05-18 19:21:00,52.0,51.0,25.90,WNW,284,1.0,6.0,96,0.00,,,0.02,,2013-05-19 02:21:00,
2013-05-18 19:32:00,52.0,-99.9,25.92,WSW,257,2.0,2.0,-999,0.00,,,0.02,,2013-05-19 02:32:00,
2013-05-18 19:42:00,52.0,-99.9,25.92,WSW,257,2.0,2.0,-999,0.00,,,0.02,,2013-05-19 02:42:00,